Location: Unspecified
(0.0000°N, 0.0000°E)
Time: 23:56:24
(UTC+00:00)

NANOACE - Pass Details

Date: 15 June 2023
Orbit: 566 x 580 km, 97.4° (Epoch: 28 September)

Event Time Altitude Azimuth Distance (km) Brightness Sun altitude
Rises 18:33:10 0° 24° (NNE) 2,755 ? -7.5°
Reaches altitude 10° 18:35:25 10° 32° (NNE) 1,859 ? -8.0°
Maximum altitude 18:39:11 39° 101° (E) 857 ? -8.9°
Drops below altitude 10° 18:42:57 10° 170° (S) 1,862 ? -9.7°
Sets 18:45:11 0° 178° (S) 2,761 ? -10.2°
